EZY41X EGJJ-EGPH

Flight info

Callsign EZY41X
Flight time 1h 12m
Altitude 24000
Route SKERY L22 EMWIP P16 FIMCA/N0451F330 DCT BHD DCT WIGGU DCT AZCAL DCT AVTIC DCT ANJAK/N0448F340 N38 NOKIN UP16 RIBEL DCT INPIP
Aircraft A320/M-SDE3FGHIRWY/LB1

Departure

Time 2026-04-25 18:43
Airport Jersey Airport (EGJJ)

Arrival

Time 2026-04-25 19:55
Airport Edinburgh Airport (EGPH)
Time Latitude Longitude Altitude Speed Heading
2026-04-25 18:04 49.20494 -2.19736 289 ft 0 kts 353°
2026-04-25 18:32 49.20471 -2.19731 291 ft 4 kts 345°
2026-04-25 18:33 49.20448 -2.19715 285 ft 4 kts 306°
2026-04-25 18:33 49.20443 -2.19686 287 ft 4 kts 268°
2026-04-25 18:33 49.20440 -2.19647 285 ft 3 kts 285°
2026-04-25 18:33 49.20438 -2.19637 286 ft 0 kts 284°
2026-04-25 18:39 49.20443 -2.19669 284 ft 10 kts 281°
2026-04-25 18:39 49.20436 -2.19796 284 ft 9 kts 263°
2026-04-25 18:39 49.20433 -2.19877 284 ft 11 kts 277°
2026-04-25 18:39 49.20503 -2.19948 285 ft 16 kts 316°
2026-04-25 18:40 49.20538 -2.20090 284 ft 12 kts 287°
2026-04-25 18:40 49.20560 -2.20201 284 ft 10 kts 287°
2026-04-25 18:40 49.20589 -2.20359 284 ft 13 kts 286°
2026-04-25 18:40 49.20614 -2.20490 284 ft 11 kts 288°
2026-04-25 18:41 49.20619 -2.20513 284 ft 0 kts 285°
2026-04-25 18:41 49.20619 -2.20514 284 ft 1 kts 285°
2026-04-25 18:42 49.20628 -2.20638 284 ft 17 kts 274°
2026-04-25 18:42 49.20683 -2.20698 284 ft 13 kts 14°
2026-04-25 18:42 49.20733 -2.20341 284 ft 69 kts 83°
2026-04-25 18:42 49.20826 -2.19223 290 ft 139 kts 83°
2026-04-25 18:43 49.20929 -2.17683 883 ft 144 kts 84°
2026-04-25 18:43 49.21037 -2.16182 1494 ft 150 kts 82°
2026-04-25 18:43 49.21182 -2.14519 1758 ft 168 kts 81°
2026-04-25 18:43 49.21441 -2.12676 1980 ft 191 kts 69°
2026-04-25 18:44 49.22105 -2.10774 2229 ft 215 kts 52°
2026-04-25 18:44 49.23237 -2.09105 2564 ft 239 kts 33°
2026-04-25 18:44 49.24806 -2.08065 3130 ft 252 kts 11°
2026-04-25 18:44 49.26562 -2.07951 3926 ft 257 kts 351°
2026-04-25 18:45 49.28261 -2.08847 4756 ft 261 kts 329°
2026-04-25 18:45 49.29629 -2.10684 5524 ft 266 kts 307°
2026-04-25 18:45 49.30471 -2.13233 6300 ft 271 kts 290°
2026-04-25 18:45 49.31182 -2.15888 7068 ft 274 kts 295°
2026-04-25 18:46 49.32080 -2.18489 7821 ft 278 kts 301°
2026-04-25 18:46 49.33174 -2.20955 8571 ft 282 kts 308°
2026-04-25 18:46 49.34456 -2.23260 9336 ft 285 kts 314°
2026-04-25 18:46 49.35906 -2.25362 10111 ft 288 kts 319°
2026-04-25 18:47 49.37455 -2.27436 10485 ft 306 kts 319°
2026-04-25 18:47 49.39122 -2.29674 10658 ft 328 kts 319°
2026-04-25 18:47 49.40846 -2.31992 11061 ft 338 kts 319°
2026-04-25 18:47 49.42626 -2.34379 11167 ft 339 kts 319°
2026-04-25 18:48 49.44407 -2.36766 11191 ft 340 kts 319°
2026-04-25 18:48 49.46197 -2.39137 11212 ft 340 kts 320°
2026-04-25 18:48 49.48064 -2.41404 11838 ft 343 kts 322°
2026-04-25 18:48 49.49988 -2.43614 12578 ft 346 kts 323°
2026-04-25 18:49 49.51913 -2.45778 13278 ft 348 kts 323°
2026-04-25 18:49 49.53886 -2.47989 13956 ft 351 kts 323°
2026-04-25 18:49 49.55867 -2.50226 14547 ft 354 kts 323°
2026-04-25 18:49 49.57860 -2.52503 15164 ft 357 kts 322°
2026-04-25 18:50 49.59858 -2.54807 15762 ft 359 kts 322°
2026-04-25 18:50 49.61838 -2.57100 16345 ft 362 kts 322°
2026-04-25 18:50 49.63856 -2.59440 16934 ft 364 kts 322°
2026-04-25 18:50 49.65895 -2.61807 17515 ft 367 kts 322°
2026-04-25 18:51 49.67944 -2.64188 18083 ft 370 kts 322°
2026-04-25 18:51 49.69307 -2.65775 18470 ft 372 kts 322°
2026-04-25 18:51 49.72084 -2.69015 19127 ft 376 kts 322°
2026-04-25 18:51 49.74183 -2.71462 19612 ft 379 kts 321°
2026-04-25 18:52 49.76302 -2.73931 20074 ft 383 kts 321°
2026-04-25 18:52 49.78413 -2.76394 20551 ft 386 kts 321°
2026-04-25 18:52 49.80569 -2.78916 21037 ft 389 kts 321°
2026-04-25 18:52 49.82735 -2.81452 21521 ft 392 kts 321°
2026-04-25 18:53 49.84924 -2.84015 21999 ft 395 kts 321°
2026-04-25 18:53 49.87101 -2.86567 22460 ft 398 kts 321°
2026-04-25 18:53 49.89328 -2.89179 22916 ft 401 kts 321°
2026-04-25 18:53 49.91557 -2.91800 23359 ft 404 kts 321°
2026-04-25 18:54 49.96064 -2.97115 24113 ft 409 kts 321°
2026-04-25 18:54 49.98301 -2.99746 24191 ft 408 kts 321°
2026-04-25 18:54 50.00566 -3.02415 24207 ft 408 kts 321°
2026-04-25 18:55 50.02823 -3.05083 24211 ft 407 kts 321°
2026-04-25 18:55 50.05078 -3.07756 24213 ft 407 kts 321°
2026-04-25 18:55 50.07339 -3.10438 24215 ft 407 kts 321°
2026-04-25 18:55 50.09592 -3.13116 24208 ft 407 kts 321°
2026-04-25 18:56 50.11843 -3.15793 24219 ft 407 kts 321°
2026-04-25 18:56 50.14075 -3.18445 24211 ft 407 kts 321°
2026-04-25 18:56 50.16336 -3.21138 24227 ft 407 kts 320°
2026-04-25 18:56 50.18588 -3.23825 24213 ft 407 kts 320°
2026-04-25 18:57 50.20839 -3.26510 24211 ft 407 kts 320°
2026-04-25 18:57 50.23057 -3.29160 24212 ft 407 kts 320°
2026-04-25 18:57 50.25307 -3.31853 24213 ft 407 kts 320°
2026-04-25 18:57 50.26797 -3.33636 24212 ft 407 kts 320°
2026-04-25 18:58 50.29803 -3.37239 24215 ft 407 kts 320°
2026-04-25 18:58 50.34290 -3.42653 24216 ft 407 kts 320°
2026-04-25 18:58 50.36569 -3.45191 24214 ft 408 kts 328°
2026-04-25 18:59 50.41944 -3.48171 24221 ft 414 kts 349°
2026-04-25 18:59 50.47733 -3.47893 24220 ft 418 kts
2026-04-25 19:00 50.53481 -3.46796 24215 ft 419 kts
2026-04-25 19:00 50.56382 -3.46244 24214 ft 419 kts
2026-04-25 19:01 50.62185 -3.45148 24225 ft 419 kts
2026-04-25 19:01 50.65081 -3.44598 24222 ft 419 kts
2026-04-25 19:01 50.67941 -3.44050 24223 ft 419 kts
2026-04-25 19:01 50.70846 -3.43488 24221 ft 418 kts
2026-04-25 19:02 50.76633 -3.42373 24218 ft 418 kts
2026-04-25 19:02 50.79490 -3.41824 24216 ft 418 kts
2026-04-25 19:02 50.82387 -3.41264 24215 ft 418 kts
2026-04-25 19:03 50.86220 -3.40525 24215 ft 418 kts
2026-04-25 19:03 50.91070 -3.39597 24211 ft 419 kts
2026-04-25 19:03 50.93964 -3.39042 24210 ft 419 kts
2026-04-25 19:04 50.99749 -3.37932 24287 ft 429 kts
2026-04-25 19:04 51.02750 -3.37350 24405 ft 437 kts
2026-04-25 19:05 51.08902 -3.36146 24640 ft 452 kts
2026-04-25 19:05 51.15233 -3.34912 24895 ft 462 kts
2026-04-25 19:05 51.18387 -3.34250 25154 ft 463 kts
2026-04-25 19:06 51.21576 -3.33525 25482 ft 463 kts
2026-04-25 19:06 51.27919 -3.32004 26307 ft 457 kts
2026-04-25 19:06 51.31068 -3.31239 26731 ft 455 kts
2026-04-25 19:07 51.37269 -3.29756 27491 ft 451 kts
2026-04-25 19:07 51.40370 -3.29031 27871 ft 450 kts
2026-04-25 19:08 51.46555 -3.27584 28647 ft 447 kts
2026-04-25 19:08 51.49643 -3.26861 29040 ft 446 kts
2026-04-25 19:09 51.58801 -3.24705 29206 ft 443 kts
2026-04-25 19:09 51.59830 -3.24462 29197 ft 443 kts
2026-04-25 19:10 51.71020 -3.21801 29254 ft 443 kts
2026-04-25 19:10 51.77129 -3.20349 29266 ft 443 kts
2026-04-25 19:11 51.83207 -3.18910 29688 ft 443 kts
2026-04-25 19:11 51.86260 -3.18180 30086 ft 442 kts
2026-04-25 19:11 51.89295 -3.17448 30449 ft 440 kts
2026-04-25 19:11 51.92319 -3.16722 30785 ft 439 kts
2026-04-25 19:12 51.95351 -3.15995 31109 ft 439 kts
2026-04-25 19:12 51.98372 -3.15269 31418 ft 438 kts
2026-04-25 19:12 52.01353 -3.14549 31731 ft 438 kts
2026-04-25 19:12 52.04368 -3.13820 32028 ft 437 kts
2026-04-25 19:13 52.07390 -3.13087 32190 ft 438 kts
2026-04-25 19:13 52.13423 -3.11627 32215 ft 437 kts
2026-04-25 19:14 52.19412 -3.10169 32215 ft 437 kts
2026-04-25 19:14 52.25401 -3.08714 32226 ft 437 kts
2026-04-25 19:15 52.31437 -3.07245 32215 ft 438 kts
2026-04-25 19:15 52.37468 -3.05778 32214 ft 438 kts
2026-04-25 19:16 52.43467 -3.04306 32216 ft 438 kts
2026-04-25 19:16 52.49493 -3.02815 32227 ft 437 kts
2026-04-25 19:17 52.55530 -3.01327 32215 ft 438 kts
2026-04-25 19:17 52.61499 -2.99517 32216 ft 441 kts 13°
2026-04-25 19:18 52.67403 -2.96661 32215 ft 441 kts 13°
2026-04-25 19:18 52.73294 -2.93778 32217 ft 441 kts 13°
2026-04-25 19:19 52.79184 -2.90887 32222 ft 441 kts 13°
2026-04-25 19:19 52.85077 -2.87986 32216 ft 441 kts 13°
2026-04-25 19:20 52.90950 -2.85093 32214 ft 441 kts 13°
2026-04-25 19:20 52.95858 -2.82665 32213 ft 441 kts 13°
2026-04-25 19:21 53.02707 -2.79270 32211 ft 441 kts 14°
2026-04-25 19:21 53.10553 -2.75368 32215 ft 441 kts 14°
2026-04-25 19:22 53.16457 -2.72421 32220 ft 441 kts 14°
2026-04-25 19:23 53.25268 -2.68016 32222 ft 442 kts 14°
2026-04-25 19:23 53.34108 -2.63567 32215 ft 442 kts 14°
2026-04-25 19:24 53.39963 -2.60617 32215 ft 442 kts 14°
2026-04-25 19:25 53.51720 -2.54647 32226 ft 442 kts 15°
2026-04-25 19:25 53.57599 -2.51652 32229 ft 442 kts 15°
2026-04-25 19:26 53.63493 -2.48655 32229 ft 441 kts 15°
2026-04-25 19:26 53.69376 -2.45651 32228 ft 441 kts 15°
2026-04-25 19:27 53.74264 -2.43140 32239 ft 442 kts 15°
2026-04-25 19:27 53.81115 -2.39607 32230 ft 443 kts 15°
2026-04-25 19:28 53.87027 -2.36548 32234 ft 443 kts 15°
2026-04-25 19:28 53.92932 -2.33483 32239 ft 443 kts 15°
2026-04-25 19:29 53.98872 -2.31017 32254 ft 441 kts
2026-04-25 19:29 54.01934 -2.30918 32248 ft 438 kts 353°
2026-04-25 19:29 54.04946 -2.31675 32248 ft 436 kts 345°
2026-04-25 19:30 54.10593 -2.35189 32233 ft 435 kts 335°
2026-04-25 19:30 54.16211 -2.39092 32240 ft 436 kts 336°
2026-04-25 19:31 54.21821 -2.42960 32247 ft 436 kts 336°
2026-04-25 19:31 54.27462 -2.46880 32251 ft 437 kts 336°
2026-04-25 19:32 54.33077 -2.50816 32250 ft 438 kts 336°
2026-04-25 19:32 54.37804 -2.54138 32252 ft 438 kts 336°
2026-04-25 19:33 54.44381 -2.58778 31843 ft 440 kts 336°
2026-04-25 19:33 54.47219 -2.60779 31393 ft 439 kts 336°
2026-04-25 19:33 54.50046 -2.62773 30946 ft 440 kts 336°
2026-04-25 19:34 54.52851 -2.64751 30516 ft 440 kts 336°
2026-04-25 19:34 54.55693 -2.66758 30032 ft 440 kts 336°
2026-04-25 19:34 54.58517 -2.68761 29524 ft 437 kts 335°
2026-04-25 19:34 54.61322 -2.70760 29026 ft 433 kts 335°
2026-04-25 19:35 54.64062 -2.72714 28536 ft 429 kts 335°
2026-04-25 19:35 54.66818 -2.74677 28041 ft 426 kts 335°
2026-04-25 19:35 54.69547 -2.76619 27576 ft 422 kts 335°
2026-04-25 19:35 54.72254 -2.78545 27128 ft 419 kts 335°
2026-04-25 19:36 54.74945 -2.80465 26663 ft 416 kts 335°
2026-04-25 19:36 54.77607 -2.82372 26202 ft 413 kts 335°
2026-04-25 19:36 54.80259 -2.84278 25757 ft 413 kts 335°
2026-04-25 19:36 54.82874 -2.86160 25324 ft 409 kts 335°
2026-04-25 19:37 54.85486 -2.88042 24882 ft 404 kts 335°
2026-04-25 19:37 54.88075 -2.89908 24467 ft 400 kts 335°
2026-04-25 19:37 54.90642 -2.91759 24251 ft 398 kts 335°
2026-04-25 19:37 54.93204 -2.93608 24263 ft 398 kts 335°
2026-04-25 19:38 54.95732 -2.95435 24261 ft 398 kts 335°
2026-04-25 19:38 54.98289 -2.97290 24273 ft 398 kts 335°
2026-04-25 19:38 55.00866 -2.99164 24094 ft 400 kts 335°
2026-04-25 19:38 55.03437 -3.01034 23524 ft 398 kts 335°
2026-04-25 19:39 55.05986 -3.02888 22929 ft 395 kts 335°
2026-04-25 19:39 55.08486 -3.04706 22349 ft 394 kts 335°
2026-04-25 19:39 55.11013 -3.06548 21768 ft 392 kts 335°
2026-04-25 19:39 55.13538 -3.08394 21175 ft 391 kts 335°
2026-04-25 19:40 55.16052 -3.10237 20542 ft 392 kts 335°
2026-04-25 19:40 55.18576 -3.12088 19920 ft 393 kts 335°
2026-04-25 19:40 55.21104 -3.13946 19313 ft 394 kts 335°
2026-04-25 19:40 55.23631 -3.15806 18731 ft 394 kts 335°
2026-04-25 19:41 55.26129 -3.17647 18088 ft 394 kts 335°
2026-04-25 19:41 55.28689 -3.19426 17416 ft 396 kts 342°
2026-04-25 19:41 55.31422 -3.20138 16758 ft 399 kts 359°
2026-04-25 19:41 55.33263 -3.19934 16343 ft 399 kts
2026-04-25 19:42 55.36938 -3.19367 15506 ft 399 kts
2026-04-25 19:42 55.39737 -3.18917 14884 ft 398 kts
2026-04-25 19:42 55.42458 -3.18477 14286 ft 397 kts
2026-04-25 19:42 55.45217 -3.18035 13645 ft 396 kts
2026-04-25 19:43 55.47949 -3.17603 12990 ft 394 kts
2026-04-25 19:43 55.50652 -3.17178 12389 ft 381 kts
2026-04-25 19:43 55.53218 -3.16776 11929 ft 359 kts
2026-04-25 19:43 55.55642 -3.16397 11481 ft 341 kts
2026-04-25 19:44 55.57957 -3.16035 11037 ft 326 kts
2026-04-25 19:44 55.60170 -3.15685 10600 ft 313 kts
2026-04-25 19:44 55.62277 -3.15353 10173 ft 302 kts
2026-04-25 19:44 55.64340 -3.15030 9693 ft 293 kts
2026-04-25 19:45 55.66362 -3.14712 9228 ft 291 kts
2026-04-25 19:45 55.68388 -3.14456 8763 ft 292 kts 356°
2026-04-25 19:45 55.70328 -3.15311 8302 ft 287 kts 330°
2026-04-25 19:45 55.71826 -3.17584 7854 ft 284 kts 304°
2026-04-25 19:46 55.72597 -3.20763 7381 ft 280 kts 283°
2026-04-25 19:46 55.72972 -3.24068 6846 ft 273 kts 280°
2026-04-25 19:46 55.73290 -3.27349 6285 ft 267 kts 279°
2026-04-25 19:46 55.73598 -3.30569 5721 ft 262 kts 279°
2026-04-25 19:47 55.73900 -3.33731 5239 ft 257 kts 279°
2026-04-25 19:47 55.74208 -3.36858 4816 ft 257 kts 279°
2026-04-25 19:47 55.74543 -3.39990 4415 ft 258 kts 279°
2026-04-25 19:47 55.74899 -3.43100 4057 ft 254 kts 279°
2026-04-25 19:48 55.75230 -3.46057 3999 ft 238 kts 279°
2026-04-25 19:48 55.75549 -3.48877 4009 ft 229 kts 279°
2026-04-25 19:48 55.75868 -3.51641 4014 ft 228 kts 279°
2026-04-25 19:48 55.76231 -3.54385 4009 ft 229 kts 289°
2026-04-25 19:49 55.77170 -3.56682 3807 ft 234 kts 320°
2026-04-25 19:49 55.77598 -3.57231 3712 ft 233 kts 325°
2026-04-25 19:49 55.79857 -3.59602 3151 ft 220 kts 330°
2026-04-25 19:49 55.81144 -3.60946 3011 ft 208 kts 330°
2026-04-25 19:50 55.83727 -3.62726 3007 ft 197 kts 11°
2026-04-25 19:50 55.84991 -3.61929 3011 ft 190 kts 27°
2026-04-25 19:50 55.86151 -3.60889 3010 ft 188 kts 29°
2026-04-25 19:51 55.87260 -3.59649 2876 ft 188 kts 46°
2026-04-25 19:51 55.87998 -3.57802 2653 ft 179 kts 60°
2026-04-25 19:51 55.88625 -3.55968 2415 ft 166 kts 62°
2026-04-25 19:51 55.89198 -3.54292 2219 ft 157 kts 62°
2026-04-25 19:52 55.89759 -3.52647 1995 ft 154 kts 61°
2026-04-25 19:52 55.90311 -3.51028 1778 ft 151 kts 62°
2026-04-25 19:52 55.90855 -3.49433 1567 ft 149 kts 61°
2026-04-25 19:52 55.91392 -3.47856 1358 ft 150 kts 60°
2026-04-25 19:53 55.91916 -3.46320 1131 ft 139 kts 60°
2026-04-25 19:53 55.92400 -3.44898 951 ft 133 kts 61°
2026-04-25 19:53 55.92877 -3.43491 756 ft 132 kts 59°
2026-04-25 19:53 55.93356 -3.42108 572 ft 130 kts 60°
2026-04-25 19:54 55.93825 -3.40715 394 ft 129 kts 59°
2026-04-25 19:54 55.94298 -3.39324 239 ft 132 kts 59°
2026-04-25 19:54 55.94761 -3.37958 119 ft 120 kts 59°
2026-04-25 19:54 55.94900 -3.37542 114 ft 111 kts 59°
2026-04-25 19:55 55.95368 -3.36169 110 ft 39 kts 56°
2026-04-25 19:55 55.95451 -3.35920 111 ft 26 kts 58°
2026-04-25 19:55 55.95551 -3.35579 113 ft 31 kts 88°
2026-04-25 19:55 55.95443 -3.35415 116 ft 11 kts 202°
2026-04-25 19:56 55.95398 -3.35500 114 ft 9 kts 238°
2026-04-25 19:56 55.95369 -3.35587 116 ft 8 kts 238°
2026-04-25 19:56 55.95343 -3.35661 115 ft 6 kts 238°
2026-04-25 19:56 55.95319 -3.35736 112 ft 12 kts 240°
2026-04-25 19:57 55.95254 -3.35924 115 ft 16 kts 238°
2026-04-25 19:57 55.95178 -3.35961 114 ft 17 kts 149°
2026-04-25 19:57 55.95078 -3.35790 115 ft 18 kts 167°
2026-04-25 19:57 55.94986 -3.35854 113 ft 12 kts 200°
2026-04-25 19:58 55.94948 -3.35923 116 ft 4 kts 254°
2026-04-25 19:58 55.94942 -3.35963 115 ft 3 kts 255°
2026-04-25 19:58 55.94939 -3.35982 113 ft 1 kts 255°
2026-04-25 19:58 55.94939 -3.35985 114 ft 0 kts 255°